User: anonymous   Login
Location: Unspecified
(0.0000°N, 0.0000°E)
Time: 19:42:49
(UTC+00:00)
Language:

COSMOS 2452 - Orbit

View from above orbital plane
View from above orbital plane
View from above satellite
View from above satellite

Ground track
Ground track

The orbit data is extracted from the following two-line orbital elements,

1 35499U 09036B   19340.75538798  .00000017  00000-0  52865-4 0  9995
2 35499  82.4877 124.5231 0015731 301.8489  58.1072 12.42921017472674
Epoch (UTC): 06 December 2019 18:07:45
Eccentricity: 0.0015731
inclination: 82.4877°
perigee height: 1482 km
apogee height: 1506 km
right ascension of ascending node: 124.5231°
argument of perigee: 301.8489°
revolutions per day: 12.42921017
mean anomaly at epoch: 58.1072°
orbit number at epoch: 47267

The dashed part of the orbit path shows where the satellite is in the earth's shadow,  

DLR